| time (UTC) | temp F | wind direction | speed knots | gust knots | rain 1hr in | rain 24hr in | rain mn in | humidity % | barometer mb |
| 20260505011550 | 52 | 219 | 4.3 | 9.6 | 0.00 | 0.00 | 0.00 | 79 | 1011.5 |
| 20260505010045 | 52 | 201 | 1.7 | 8.7 | 0.00 | 0.00 | 0.00 | 78 | 1011.4 |
| 20260505004540 | 53 | 132 | 3.5 | 8.7 | 0.00 | 0.00 | 0.00 | 76 | 1011.1 |
| 20260505003043 | 53 | 207 | 3.5 | 13.0 | 0.00 | 0.00 | 0.00 | 75 | 1010.8 |
| 20260505001544 | 54 | 148 | 2.6 | 12.2 | 0.00 | 0.00 | 0.00 | 73 | 1010.7 |
| 20260505000042 | 54 | 139 | 6.1 | 13.9 | 0.00 | 0.00 | 0.00 | 70 | 1010.5 |
| 20260504234542 | 55 | 145 | 3.5 | 11.3 | 0.00 | 0.00 | 0.00 | 68 | 1010.3 |
| 20260504233045 | 56 | 221 | 5.2 | 12.2 | 0.00 | 0.00 | 0.00 | 64 | 1010.2 |
| 20260504231544 | 57 | 186 | 4.3 | 13.9 | 0.00 | 0.00 | 0.00 | 60 | 1009.8 |
| 20260504230043 | 59 | 314 | 3.5 | 10.4 | 0.00 | 0.00 | 0.00 | 58 | 1009.8 |
| 20260504224542 | 59 | 162 | 4.3 | 12.2 | 0.00 | 0.00 | 0.00 | 56 | 1009.6 |
| 20260504223047 | 60 | 227 | 3.5 | 18.2 | 0.00 | 0.00 | 0.00 | 53 | 1009.7 |
| 20260504221545 | 61 | 160 | 7.0 | 16.5 | 0.00 | 0.00 | 0.00 | 51 | 1009.6 |
| 20260504220100 | 62 | 210 | 7.0 | 19.1 | 0.00 | 0.00 | 0.00 | 49 | 1009.6 |
| 20260504214551 | 63 | 188 | 7.0 | 16.5 | 0.00 | 0.00 | 0.00 | 48 | 1009.6 |
| 20260504213053 | 64 | 276 | 6.1 | 13.9 | 0.00 | 0.00 | 0.00 | 47 | 1009.4 |
| 20260504211538 | 64 | 249 | 6.1 | 16.5 | 0.00 | 0.00 | 0.00 | 48 | 1009.4 |
| 20260504210045 | 64 | 101 | 7.0 | 16.5 | 0.00 | 0.00 | 0.00 | 48 | 1009.3 |
| 20260504204544 | 65 | 135 | 7.0 | 19.1 | 0.00 | 0.00 | 0.00 | 47 | 1009.3 |
| 20260504203043 | 65 | 215 | 6.1 | 14.8 | 0.00 | 0.00 | 0.00 | 45 | 1009.2 |
| 20260504201537 | 64 | 202 | 9.6 | 23.5 | 0.00 | 0.00 | 0.00 | 45 | 1009.1 |
| 20260504200050 | 65 | 238 | 7.0 | 17.4 | 0.00 | 0.00 | 0.00 | 44 | 1009.2 |
| 20260504194547 | 66 | 233 | 7.8 | 13.9 | 0.00 | 0.00 | 0.00 | 41 | 1009.2 |
| 20260504193043 | 66 | 309 | 2.6 | 17.4 | 0.00 | 0.00 | 0.00 | 43 | 1009.2 |
| 20260504191553 | 65 | 224 | 5.2 | 18.2 | 0.00 | 0.00 | 0.00 | 40 | 1009.2 |
| 20260504190057 | 65 | 198 | 7.0 | 17.4 | 0.00 | 0.00 | 0.00 | 39 | 1009.3 |
| 20260504184559 | 65 | 257 | 7.8 | 19.1 | 0.00 | 0.00 | 0.00 | 37 | 1009.3 |
| 20260504183050 | 65 | 174 | 7.8 | 21.7 | 0.00 | 0.00 | 0.00 | 37 | 1009.6 |
| 20260504181547 | 65 | 253 | 6.1 | 20.0 | 0.00 | 0.00 | 0.00 | 37 | 1009.8 |
| 20260504180042 | 64 | 211 | 8.7 | 22.6 | 0.00 | 0.00 | 0.00 | 38 | 1009.9 |
| 20260504174547 | 64 | 271 | 7.8 | 24.3 | 0.00 | 0.00 | 0.00 | 36 | 1010.0 |
| 20260504173047 | 64 | 278 | 8.7 | 21.7 | 0.00 | 0.00 | 0.00 | 36 | 1010.0 |
| 20260504171544 | 64 | 270 | 7.0 | 20.9 | 0.00 | 0.00 | 0.00 | 35 | 1010.0 |
| 20260504081552 | 45 | 0 | 0.9 | 6.1 | 0.00 | 0.00 | 0.00 | 58 | 1011.2 |
| 20260504044547 | 42 | 0 | 0.0 | 2.6 | 0.00 | 0.00 | 0.00 | 59 | 1011.2 |
| 20260504043044 | 43 | 0 | 0.0 | 3.5 | 0.00 | 0.00 | 0.00 | 56 | 1011.2 |
| 20260504041540 | 42 | 0 | 0.0 | 2.6 | 0.00 | 0.00 | 0.00 | 58 | 1011.2 |
| 20260504040053 | 42 | 212 | 0.0 | 2.6 | 0.00 | 0.00 | 0.00 | 58 | 1011.0 |
| 20260504034556 | 42 | 247 | 0.0 | 3.5 | 0.00 | 0.00 | 0.00 | 60 | 1011.0 |
| 20260504033112 | 43 | 200 | 0.9 | 4.3 | 0.00 | 0.00 | 0.00 | 57 | 1010.8 |
| 20260504031638 | 44 | 0 | 0.9 | 4.3 | 0.00 | 0.00 | 0.00 | 55 | 1010.8 |
| 20260504030045 | 44 | 0 | 0.0 | 3.5 | 0.00 | 0.00 | 0.00 | 54 | 1010.7 |
| 20260504024550 | 44 | 224 | 0.9 | 3.5 | 0.00 | 0.00 | 0.00 | 54 | 1010.6 |
| 20260504023059 | 43 | 200 | 0.0 | 2.6 | 0.00 | 0.00 | 0.00 | 56 | 1010.7 |
| 20260504021543 | 43 | 191 | 0.0 | 1.7 | 0.00 | 0.00 | 0.00 | 56 | 1010.7 |
| 20260504020043 | 42 | 0 | 0.0 | 2.6 | 0.00 | 0.00 | 0.00 | 56 | 1010.7 |
| 20260504014549 | 43 | 0 | 0.0 | 1.7 | 0.00 | 0.00 | 0.00 | 56 | 1010.6 |
| 20260504013046 | 43 | 0 | 0.0 | 0.9 | 0.00 | 0.00 | 0.00 | 55 | 1010.4 |